| time (UTC) | temp F | wind direction | speed MPH | gust MPH | rain 1hr in | rain 24hr in | rain mn in | humidity % | barometer mb |
| 20260505124608 | 53 | 25 | 3.0 | 16.0 | 0.00 | 0.00 | 0.00 | 54 | 1001.3 |
| 20260505123055 | 53 | 56 | 5.0 | 15.0 | 0.00 | 0.00 | 0.00 | 54 | 1001.1 |
| 20260505121551 | 53 | 44 | 3.0 | 9.0 | 0.00 | 0.00 | 0.00 | 54 | 1001.0 |
| 20260505120053 | 54 | 39 | 2.0 | 11.0 | 0.00 | 0.00 | 0.00 | 54 | 1000.7 |
| 20260505114556 | 54 | 32 | 5.0 | 13.0 | 0.00 | 0.00 | 0.00 | 55 | 1000.3 |
| 20260505113045 | 55 | 91 | 3.0 | 16.0 | 0.00 | 0.00 | 0.00 | 55 | 1000.3 |
| 20260505111539 | 55 | 38 | 6.0 | 15.0 | 0.00 | 0.00 | 0.00 | 56 | 1000.0 |
| 20260505101538 | 60 | 298 | 8.0 | 17.0 | 0.00 | 0.00 | 0.00 | 48 | 999.5 |
| 20260505100019 | 63 | 20 | 7.0 | 15.0 | 0.00 | 0.00 | 0.00 | 36 | 999.2 |
| 20260505094521 | 66 | 60 | 8.0 | 16.0 | 0.00 | 0.00 | 0.00 | 28 | 998.6 |
| 20260505093013 | 65 | 274 | 4.0 | 10.0 | 0.00 | 0.00 | 0.00 | 27 | 998.3 |
| 20260505091511 | 64 | 265 | 6.0 | 14.0 | 0.00 | 0.00 | 0.00 | 29 | 998.0 |
| 20260505090016 | 64 | 210 | 3.0 | 6.0 | 0.00 | 0.00 | 0.00 | 30 | 997.5 |
| 20260505084505 | 65 | 229 | 2.0 | 6.0 | 0.00 | 0.00 | 0.00 | 29 | 997.5 |
| 20260505083004 | 66 | 236 | 3.0 | 6.0 | 0.00 | 0.00 | 0.00 | 28 | 997.5 |
| 20260505081606 | 66 | 223 | 3.0 | 6.0 | 0.00 | 0.00 | 0.00 | 27 | 997.5 |
| 20260505080058 | 67 | 222 | 4.0 | 8.0 | 0.00 | 0.00 | 0.00 | 27 | 997.6 |
| 20260505074555 | 67 | 250 | 3.0 | 8.0 | 0.00 | 0.00 | 0.00 | 27 | 997.8 |
| 20260505073104 | 67 | 227 | 5.0 | 9.0 | 0.00 | 0.00 | 0.00 | 27 | 997.7 |
| 20260505071558 | 68 | 208 | 7.0 | 12.0 | 0.00 | 0.00 | 0.00 | 26 | 997.7 |
| 20260505070045 | 69 | 237 | 7.0 | 10.0 | 0.00 | 0.00 | 0.00 | 25 | 997.9 |
| 20260505064543 | 70 | 227 | 6.0 | 13.0 | 0.00 | 0.00 | 0.00 | 24 | 997.9 |
| 20260505063039 | 71 | 228 | 7.0 | 15.0 | 0.00 | 0.00 | 0.00 | 24 | 997.9 |
| 20260505061535 | 71 | 243 | 7.0 | 13.0 | 0.00 | 0.00 | 0.00 | 23 | 998.0 |
| 20260505060043 | 72 | 205 | 7.0 | 15.0 | 0.00 | 0.00 | 0.00 | 23 | 998.1 |
| 20260505054530 | 72 | 217 | 8.0 | 16.0 | 0.00 | 0.00 | 0.00 | 22 | 998.0 |
| 20260505053030 | 72 | 222 | 7.0 | 13.0 | 0.00 | 0.00 | 0.00 | 22 | 998.1 |
| 20260505051528 | 72 | 190 | 9.0 | 16.0 | 0.00 | 0.00 | 0.00 | 22 | 998.2 |
| 20260505041524 | 72 | 191 | 4.0 | 11.0 | 0.00 | 0.00 | 0.00 | 24 | 998.3 |
| 20260505040020 | 73 | 181 | 7.0 | 15.0 | 0.00 | 0.00 | 0.00 | 23 | 998.5 |
| 20260505034519 | 73 | 210 | 7.0 | 14.0 | 0.00 | 0.00 | 0.00 | 23 | 998.4 |
| 20260505033018 | 74 | 234 | 9.0 | 16.0 | 0.00 | 0.00 | 0.00 | 22 | 998.3 |
| 20260505031517 | 74 | 208 | 6.0 | 13.0 | 0.00 | 0.00 | 0.00 | 21 | 998.3 |
| 20260505030017 | 74 | 212 | 6.0 | 12.0 | 0.00 | 0.00 | 0.00 | 19 | 998.2 |
| 20260505024515 | 75 | 231 | 6.0 | 13.0 | 0.00 | 0.00 | 0.00 | 17 | 998.1 |
| 20260505023021 | 75 | 213 | 3.0 | 10.0 | 0.00 | 0.00 | 0.00 | 16 | 997.8 |
| 20260505021516 | 77 | 173 | 6.0 | 13.0 | 0.00 | 0.00 | 0.00 | 15 | 997.8 |
| 20260505020014 | 77 | 252 | 5.0 | 18.0 | 0.00 | 0.00 | 0.00 | 14 | 997.8 |
| 20260505014515 | 78 | 202 | 8.0 | 16.0 | 0.00 | 0.00 | 0.00 | 14 | 997.6 |
| 20260505013011 | 79 | 191 | 9.0 | 16.0 | 0.00 | 0.00 | 0.00 | 14 | 997.7 |
| 20260505011512 | 79 | 225 | 8.0 | 14.0 | 0.00 | 0.00 | 0.00 | 14 | 997.5 |
| 20260505010009 | 80 | 222 | 6.0 | 15.0 | 0.00 | 0.00 | 0.00 | 13 | 997.4 |
| 20260505004514 | 81 | 203 | 8.0 | 17.0 | 0.00 | 0.00 | 0.00 | 13 | 997.7 |
| 20260505003006 | 82 | 275 | 10.0 | 19.0 | 0.00 | 0.00 | 0.00 | 13 | 997.7 |
| 20260505001506 | 82 | 232 | 11.0 | 16.0 | 0.00 | 0.00 | 0.00 | 12 | 997.9 |
| 20260505000009 | 83 | 272 | 9.0 | 16.0 | 0.00 | 0.00 | 0.00 | 11 | 997.7 |
| 20260504234506 | 84 | 281 | 12.0 | 21.0 | 0.00 | 0.00 | 0.00 | 12 | 997.9 |
| 20260504233003 | 84 | 214 | 8.0 | 15.0 | 0.00 | 0.00 | 0.00 | 14 | 997.8 |
| 20260504231502 | 84 | 231 | 5.0 | 12.0 | 0.00 | 0.00 | 0.00 | 17 | 997.6 |
| 20260504230200 | 84 | 235 | 6.0 | 16.0 | 0.00 | 0.00 | 0.00 | 19 | 997.8 |
| 20260504224559 | 85 | 212 | 6.0 | 16.0 | 0.00 | 0.00 | 0.00 | 20 | 997.8 |
| 20260504223101 | 85 | 230 | 5.0 | 14.0 | 0.00 | 0.00 | 0.00 | 18 | 998.2 |
| 20260504221553 | 86 | 240 | 5.0 | 12.0 | 0.00 | 0.00 | 0.00 | 16 | 998.5 |
| 20260504220053 | 86 | 231 | 8.0 | 19.0 | 0.00 | 0.00 | 0.00 | 16 | 998.5 |
| 20260504214606 | 86 | 284 | 8.0 | 16.0 | 0.00 | 0.00 | 0.00 | 16 | 998.7 |
| 20260504213055 | 85 | 257 | 6.0 | 11.0 | 0.00 | 0.00 | 0.00 | 17 | 998.9 |
| 20260504211504 | 85 | 278 | 8.0 | 16.0 | 0.00 | 0.00 | 0.00 | 18 | 999.3 |
| 20260504204558 | 84 | 235 | 9.0 | 14.0 | 0.00 | 0.00 | 0.00 | 20 | 999.8 |
| 20260504203104 | 85 | 207 | 6.0 | 17.0 | 0.00 | 0.00 | 0.00 | 20 | 999.9 |
| 20260504201608 | 85 | 255 | 7.0 | 14.0 | 0.00 | 0.00 | 0.00 | 20 | 1000.1 |
| 20260504200051 | 84 | 231 | 7.0 | 19.0 | 0.00 | 0.00 | 0.00 | 21 | 1000.4 |
| 20260504194552 | 84 | 221 | 8.0 | 16.0 | 0.00 | 0.00 | 0.00 | 21 | 1000.6 |
| 20260504193045 | 83 | 205 | 10.0 | 19.0 | 0.00 | 0.00 | 0.00 | 22 | 1000.8 |
| 20260504191555 | 83 | 332 | 7.0 | 13.0 | 0.00 | 0.00 | 0.00 | 22 | 1001.0 |
| 20260504190046 | 83 | 229 | 8.0 | 15.0 | 0.00 | 0.00 | 0.00 | 23 | 1001.2 |
| 20260504184555 | 83 | 210 | 7.0 | 14.0 | 0.00 | 0.00 | 0.00 | 23 | 1001.5 |
| 20260504183110 | 83 | 251 | 8.0 | 18.0 | 0.00 | 0.00 | 0.00 | 22 | 1001.8 |
| 20260504181538 | 83 | 227 | 8.0 | 15.0 | 0.00 | 0.00 | 0.00 | 23 | 1002.3 |
| 20260504180032 | 83 | 259 | 10.0 | 15.0 | 0.00 | 0.00 | 0.00 | 23 | 1002.6 |
| 20260504174531 | 82 | 278 | 8.0 | 18.0 | 0.00 | 0.00 | 0.00 | 24 | 1002.8 |
| 20260504173031 | 82 | 308 | 8.0 | 16.0 | 0.00 | 0.00 | 0.00 | 24 | 1003.1 |
| 20260504171527 | 81 | 267 | 8.0 | 16.0 | 0.00 | 0.00 | 0.00 | 25 | 1003.2 |